period_start,C,m1,H,J0,J1,J2,J3,J4,J5,JA,JB,JC,JD,JJ,JK,JN,#
2017-07-06 00:04:23,0.01,0.95,0.00,19.02,23.21,26.28,14.05,42.31,1012.22,2048.07,3183.96,2840.88,3262.99,599.96,601.50,57.39,0000 0000 0000 0000 000000
2017-07-06 00:09:24,-0.01,0.95,0.00,19.02,23.20,26.29,13.98,42.27,1012.22,2048.08,3183.96,2840.85,3262.99,599.43,601.04,57.44,0000 0000 0000 0000 000000
2017-07-06 00:14:26,0.01,0.95,0.00,19.02,23.20,26.28,14.03,42.29,1012.19,2048.14,3183.98,2840.95,3262.99,600.01,601.46,57.49,0000 0000 0000 0000 000000
2017-07-06 00:19:27,0.00,0.95,0.00,19.02,23.19,26.27,14.05,42.38,1012.05,2048.14,3183.98,2840.93,3262.99,599.96,601.40,57.54,0000 0000 0000 0000 000000
2017-07-06 00:24:29,0.01,0.95,0.00,19.03,23.19,26.27,14.03,42.26,1011.92,2048.23,3183.99,2840.98,3262.99,599.88,601.18,57.59,0000 0000 0000 0000 000000
2017-07-06 00:29:30,0.03,0.96,0.00,19.02,23.19,26.27,14.03,42.27,1012.11,2048.59,3183.99,2840.98,3263.00,599.65,601.13,57.64,0000 0000 0000 0000 000000
2017-07-06 00:34:31,-0.01,0.96,0.00,19.02,23.19,26.26,14.01,42.29,1012.21,2048.64,3183.98,2840.97,3263.00,600.25,601.76,57.69,0000 0000 0000 0000 000000
2017-07-06 00:39:32,0.03,0.96,0.00,19.02,23.19,26.26,14.05,42.29,1012.23,2048.81,3183.98,2840.98,3263.00,599.93,601.50,57.74,0000 0000 0000 0000 000000
2017-07-06 00:44:34,-0.00,0.96,0.00,19.02,23.19,26.27,14.17,42.31,1012.22,2048.82,3183.99,2840.97,3263.00,600.57,602.11,57.79,0000 0000 0000 0000 000000
2017-07-06 00:49:35,-0.00,0.96,0.00,19.03,23.19,26.27,13.99,42.08,1012.23,2048.78,3183.99,2840.98,3263.00,599.88,601.55,57.84,0000 0000 0000 0000 000000
2017-07-06 00:54:37,0.00,0.96,0.00,19.02,23.19,26.26,14.06,42.41,1012.22,2048.82,3183.99,2840.99,3263.00,600.10,601.60,57.89,0000 0000 0000 0000 000000
2017-07-06 00:59:38,-0.00,0.96,0.00,19.02,23.19,26.25,14.03,42.22,1012.28,2048.72,3183.97,2840.98,3263.00,600.07,601.57,57.94,0000 0000 0000 0000 000000
2017-07-06 01:04:39,-0.00,0.96,0.00,19.02,23.19,26.25,14.05,42.29,1012.30,2048.82,3183.99,2840.97,3263.00,599.86,601.47,57.99,0000 0000 0000 0000 000000
2017-07-06 01:09:40,0.01,0.96,0.00,19.03,23.19,26.24,14.03,42.21,1012.33,2048.85,3183.99,2840.97,3263.00,600.10,601.58,58.05,0000 0000 0000 0000 000000
2017-07-06 01:14:41,-0.02,0.96,0.00,19.02,23.18,26.26,14.02,42.24,1012.26,2048.83,3183.98,2840.98,3263.00,599.93,601.49,58.10,0000 0000 0000 0000 000000
2017-07-06 01:19:42,0.01,0.96,0.00,19.03,23.18,26.26,14.02,42.31,1012.35,2048.75,3183.98,2840.97,3263.00,600.04,601.63,58.15,0000 0000 0000 0000 000000
2017-07-06 01:24:44,-0.01,0.96,0.00,19.04,23.18,26.24,14.11,42.36,1012.39,2048.71,3183.98,2840.98,3263.00,600.27,601.86,58.20,0000 0000 0000 0000 000000
2017-07-06 01:29:45,-0.04,0.96,0.00,19.04,23.18,26.25,14.12,42.42,1012.64,2048.33,3183.92,2840.95,3263.00,600.09,601.76,58.25,0000 0000 0000 0000 000000
2017-07-06 01:34:46,0.02,0.96,0.00,19.04,23.18,26.26,14.01,42.31,1012.65,2048.54,3183.93,2840.95,3263.00,600.03,601.71,58.30,0000 0000 0000 0000 000000
2017-07-06 01:39:47,0.01,0.96,0.00,19.03,23.18,26.26,14.07,42.42,1012.62,2048.62,3183.99,2840.97,3263.00,599.94,601.70,58.35,0000 0000 0000 0000 000000
2017-07-06 01:44:48,0.02,0.96,0.00,19.04,23.19,26.27,14.03,42.28,1012.68,2048.80,3183.99,2840.98,3263.00,600.15,601.99,58.40,0000 0000 0000 0000 000000
2017-07-06 01:49:50,0.00,0.96,0.00,19.05,23.19,26.24,14.09,42.33,1012.66,2048.92,3183.99,2840.99,3263.00,600.37,602.10,58.45,0000 0000 0000 0000 000000
2017-07-06 01:54:51,-0.00,0.96,0.00,19.06,23.19,26.26,14.10,42.33,1012.67,2048.93,3183.98,2840.98,3263.00,600.06,601.77,58.50,0000 0000 0000 0000 000000
2017-07-06 01:59:52,0.00,0.96,0.00,19.06,23.19,26.27,13.98,42.23,1012.71,2048.95,3183.97,2840.98,3263.00,599.76,601.53,58.55,0000 0000 0000 0000 000000
2017-07-06 02:04:53,-0.00,0.96,0.00,19.07,23.19,26.25,13.99,42.36,1012.72,2048.97,3183.99,2840.98,3263.00,600.08,601.72,58.60,0000 0000 0000 0000 000000
2017-07-06 02:09:54,-0.00,0.96,0.00,19.08,23.19,26.24,13.90,42.25,1012.71,2048.95,3183.99,2840.99,3263.00,599.44,601.16,58.65,0000 0000 0000 0000 000000
2017-07-06 02:14:55,0.00,0.96,0.00,19.08,23.19,26.25,14.02,42.35,1012.75,2048.92,3183.99,2840.98,3263.00,599.98,601.78,58.70,0000 0000 0000 0000 000000
2017-07-06 02:19:57,-0.01,0.96,0.00,19.08,23.19,26.24,14.00,42.28,1012.75,2048.84,3183.98,2840.98,3263.00,599.88,601.67,58.75,0000 0000 0000 0000 000000
2017-07-06 02:24:58,0.00,0.96,0.00,19.08,23.19,26.25,14.06,42.27,1012.81,2048.75,3183.99,2840.98,3263.00,600.24,601.82,58.80,0000 0000 0000 0000 000000
2017-07-06 02:29:59,-0.01,0.96,0.00,19.09,23.20,26.26,14.02,42.17,1013.04,2048.69,3183.99,2840.97,3263.00,600.09,601.91,58.85,0000 0000 0000 0000 000000
2017-07-06 02:35:00,0.01,0.96,0.00,19.10,23.20,26.27,14.05,42.31,1013.15,2048.83,3183.99,2840.99,3263.00,600.03,601.93,58.90,0000 0000 0000 0000 000000
2017-07-06 02:40:02,0.01,0.96,0.00,19.10,23.20,26.27,13.97,42.34,1013.18,2048.84,3183.99,2840.98,3263.00,599.66,601.59,58.96,0000 0000 0000 0000 000000
2017-07-06 02:45:03,-0.03,0.96,0.00,19.11,23.22,26.27,14.07,42.31,1013.20,2048.56,3183.99,2840.96,3263.00,600.25,602.13,59.01,0000 0000 0000 0000 000000
2017-07-06 02:50:05,0.02,0.96,0.00,19.13,23.22,26.28,14.09,42.21,1013.20,2048.75,3183.99,2840.97,3263.00,600.15,602.01,59.06,0000 0000 0000 0000 000000
2017-07-06 02:55:06,-0.00,0.96,0.00,19.14,23.22,26.29,13.99,42.16,1013.20,2048.64,3183.99,2840.96,3263.00,600.19,602.09,59.11,0000 0000 0000 0000 000000
2017-07-06 03:00:07,-0.04,0.96,0.00,19.16,23.22,26.28,14.08,42.27,1013.20,2048.46,3183.98,2840.93,3263.00,600.26,601.93,59.16,0000 0000 0000 0000 000000
2017-07-06 03:05:08,0.01,0.96,0.00,19.16,23.22,26.29,14.00,42.13,1013.13,2048.31,3183.82,2840.78,3262.99,600.06,601.92,59.21,0000 0000 0000 0000 000000
2017-07-06 03:10:09,-0.01,0.95,0.00,19.16,23.24,26.29,14.03,42.28,1013.13,2048.19,3183.85,2840.73,3262.98,599.96,601.69,59.26,0000 0000 0000 0000 000000
2017-07-06 03:15:10,0.01,0.96,0.00,19.17,23.24,26.29,14.08,42.26,1013.13,2048.15,3183.68,2840.48,3262.98,600.12,601.81,59.31,0000 0000 0000 0000 000000
2017-07-06 03:20:12,0.01,0.96,0.00,19.19,23.25,26.30,14.02,42.25,1013.15,2048.20,3183.51,2840.39,3262.96,599.71,601.48,59.36,0000 0000 0000 0000 000000
2017-07-06 03:25:13,0.00,0.96,0.00,19.21,23.25,26.29,14.00,42.23,1013.20,2048.18,3183.49,2840.34,3262.96,599.96,601.67,59.41,0000 0000 0000 0000 000000
2017-07-06 03:30:14,0.02,0.96,0.00,19.21,23.27,26.30,14.06,42.23,1013.20,2048.18,3183.20,2840.14,3262.88,600.05,601.78,59.46,0000 0000 0000 0000 000000
2017-07-06 03:35:15,-0.01,0.96,0.00,19.22,23.27,26.30,14.04,42.13,1013.22,2048.05,3183.07,2840.03,3262.51,599.95,601.72,59.51,0000 0000 0000 0000 000000
2017-07-06 03:40:16,0.00,0.96,0.00,19.22,23.28,26.32,14.04,42.19,1013.25,2048.04,3183.05,2840.02,3262.32,600.08,601.88,59.56,0000 0000 0000 0000 000000
2017-07-06 03:45:18,-0.00,0.96,0.00,19.25,23.29,26.32,13.97,42.15,1013.55,2048.05,3183.04,2840.05,3262.35,599.77,601.74,59.61,0000 0000 0000 0000 000000
2017-07-06 03:50:19,0.00,0.96,0.00,19.27,23.29,26.34,14.09,42.15,1013.61,2048.04,3183.04,2840.01,3262.18,600.27,602.17,59.66,0000 0000 0000 0000 000000
2017-07-06 03:55:20,0.00,0.96,0.00,19.29,23.31,26.36,14.06,42.17,1013.68,2048.02,3183.01,2840.01,3262.04,599.80,601.83,59.71,0000 0000 0000 0000 000000
2017-07-06 04:00:21,0.00,0.61,0.00,19.29,23.33,26.37,12.43,38.28,1013.69,2048.39,3327.79,2944.11,3381.47,534.20,535.81,0.01,0000 0000 0000 0000 000002
2017-07-06 04:05:23,0.00,0.00,0.00,19.30,23.33,26.38,14.11,45.15,1013.69,2049.00,3573.38,3122.39,3587.95,600.06,601.82,0.03,0000 0000 0000 0000 000000
2017-07-06 04:10:24,0.00,0.00,0.00,19.32,23.34,26.37,14.09,45.23,1013.69,2049.00,3571.84,3122.00,3587.10,599.87,601.66,0.08,0000 0000 0000 0000 000000
2017-07-06 04:15:25,0.00,0.00,0.00,19.33,23.35,26.38,14.09,45.34,1013.69,2049.00,3571.06,3121.93,3586.87,600.14,601.80,0.13,0000 0000 0000 0000 000000
2017-07-06 04:20:27,0.00,0.00,0.00,19.34,23.36,26.40,14.04,45.41,1013.69,2048.99,3570.90,3121.64,3586.09,599.89,601.62,0.18,0000 0000 0000 0000 000000
2017-07-06 04:25:28,0.01,0.00,0.00,19.36,23.37,26.42,14.04,45.24,1013.69,2048.99,3570.36,3121.35,3586.00,600.04,601.71,0.23,0000 0000 0000 0000 000000
2017-07-06 04:30:29,0.01,0.00,0.00,19.37,23.37,26.43,14.02,45.13,1013.69,2048.99,3570.01,3121.05,3585.98,599.47,601.17,0.28,0000 0000 0000 0000 000000
2017-07-06 04:35:31,0.01,0.00,0.00,19.37,23.38,26.43,14.04,45.22,1013.70,2048.99,3569.98,3121.00,3585.45,600.12,601.82,0.33,0000 0000 0000 0000 000000
2017-07-06 04:40:32,0.01,0.00,0.00,19.39,23.39,26.41,14.08,45.23,1013.69,2048.98,3569.52,3121.00,3585.05,599.92,601.57,0.38,0000 0000 0000 0000 000000
2017-07-06 04:45:33,0.00,0.00,0.00,19.40,23.41,26.43,14.05,45.26,1013.69,2048.98,3569.03,3120.99,3585.00,599.85,601.48,0.43,0000 0000 0000 0000 000000
2017-07-06 04:50:34,-0.00,0.00,0.00,19.42,23.42,26.44,14.16,45.27,1013.69,2048.90,3568.99,3120.88,3584.95,600.22,601.82,0.48,0000 0000 0000 0000 000000
2017-07-06 04:55:35,0.02,0.00,0.00,19.44,23.42,26.44,14.06,45.26,1013.70,2048.86,3568.96,3120.48,3584.46,599.74,601.30,0.53,0000 0000 0000 0000 000000
2017-07-06 05:00:36,-0.02,0.00,0.00,19.44,23.44,26.48,14.12,45.36,1013.70,2048.59,3568.76,3120.11,3584.05,600.28,602.02,0.58,0000 0000 0000 0000 000000
2017-07-06 05:05:37,-0.01,0.00,0.00,19.47,23.45,26.46,13.99,45.33,1013.70,2048.41,3568.33,3120.06,3584.01,599.87,601.36,0.63,0000 0000 0000 0000 000000
2017-07-06 05:10:38,-0.01,0.00,0.00,19.49,23.47,26.50,14.11,45.38,1013.69,2048.18,3568.06,3120.02,3584.00,600.10,601.61,0.68,0000 0000 0000 0000 000000
2017-07-06 05:15:39,-0.01,0.00,0.00,19.49,23.47,26.47,14.06,45.33,1013.70,2048.05,3568.01,3120.01,3583.95,599.95,601.44,0.73,0000 0000 0000 0000 000000
2017-07-06 05:20:41,-0.00,0.00,0.00,19.49,23.49,26.50,14.12,45.27,1013.74,2048.04,3568.00,3120.00,3583.82,600.07,601.42,0.78,0000 0000 0000 0000 000000
2017-07-06 05:25:42,0.00,0.00,0.00,19.52,23.50,26.50,14.11,45.30,1013.94,2048.04,3568.00,3120.00,3583.71,599.89,601.43,0.83,0000 0000 0000 0000 000000
2017-07-06 05:30:43,0.01,0.00,0.00,19.55,23.51,26.52,13.99,45.17,1014.11,2048.06,3567.97,3120.00,3583.26,599.72,601.30,0.88,0000 0000 0000 0000 000000
2017-07-06 05:35:44,0.00,0.00,0.00,19.55,23.52,26.52,14.05,45.13,1014.00,2048.04,3567.59,3119.98,3583.02,599.97,601.40,0.93,0000 0000 0000 0000 000000
2017-07-06 05:40:45,0.00,0.00,0.00,19.56,23.54,26.52,14.03,45.23,1013.94,2048.01,3567.32,3119.97,3583.00,600.03,601.53,0.98,0000 0000 0000 0000 000000
2017-07-06 05:45:47,0.01,0.00,0.00,19.58,23.55,26.56,14.14,45.19,1013.91,2048.04,3567.05,3119.80,3583.00,600.22,601.72,1.03,0000 0000 0000 0000 000000
2017-07-06 05:50:48,0.01,0.00,0.00,19.59,23.56,26.58,14.09,45.17,1013.93,2048.02,3567.00,3119.41,3582.99,600.19,601.44,1.08,0000 0000 0000 0000 000000
2017-07-06 05:55:50,0.00,0.00,0.00,19.59,23.57,26.60,14.03,45.26,1013.79,2048.00,3567.00,3119.09,3582.96,599.78,601.07,1.13,0000 0000 0000 0000 000000
2017-07-06 06:00:51,0.00,0.00,0.00,19.60,23.58,26.59,14.07,45.24,1013.74,2048.00,3566.96,3119.01,3582.62,599.87,601.07,1.18,0000 0000 0000 0000 000000
2017-07-06 06:05:53,0.01,0.00,0.00,19.62,23.60,26.60,14.12,45.18,1013.92,2048.00,3566.71,3119.00,3582.20,600.37,601.72,1.23,0000 0000 0000 0000 000000
2017-07-06 06:10:54,0.00,0.00,0.00,19.64,23.61,26.62,14.05,45.17,1014.00,2048.00,3566.40,3119.00,3582.05,599.92,601.27,1.28,0000 0000 0000 0000 000000
2017-07-06 06:15:56,0.00,0.00,0.00,19.65,23.62,26.63,14.07,45.22,1013.92,2047.98,3566.14,3118.99,3582.00,600.08,601.14,1.33,0000 0000 0000 0000 000000
2017-07-06 06:20:57,-0.00,0.00,0.00,19.67,23.63,26.65,14.10,45.22,1013.98,2047.93,3566.08,3118.97,3581.99,600.08,601.33,1.38,0000 0000 0000 0000 000000
2017-07-06 06:25:58,-0.01,0.00,0.00,19.68,23.65,26.66,14.10,45.23,1013.83,2047.75,3566.00,3118.94,3581.92,600.14,601.27,1.43,0000 0000 0000 0000 000000
2017-07-06 06:30:59,-0.02,0.00,0.00,19.69,23.66,26.68,14.14,45.17,1013.77,2047.26,3565.99,3118.62,3581.46,600.21,601.29,1.48,0000 0000 0000 0000 000000
2017-07-06 06:36:01,0.01,0.00,0.00,19.70,23.67,26.67,14.03,45.19,1013.77,2047.21,3565.96,3118.15,3581.07,599.86,600.82,1.53,0000 0000 0000 0000 000000
2017-07-06 06:41:02,-0.00,0.00,0.00,19.72,23.69,26.68,14.03,45.20,1013.86,2047.16,3565.80,3118.06,3581.01,599.92,601.00,1.59,0000 0000 0000 0000 000000
2017-07-06 06:46:03,0.00,0.00,0.00,19.74,23.70,26.68,14.14,45.12,1013.85,2047.07,3565.39,3118.02,3581.00,600.31,601.29,1.64,0000 0000 0000 0000 000000
2017-07-06 06:51:05,0.00,0.00,0.00,19.76,23.71,26.69,13.98,45.22,1013.79,2047.03,3565.12,3118.00,3581.00,599.73,600.68,1.69,0000 0000 0000 0000 000000
2017-07-06 06:56:06,0.00,0.00,0.00,19.77,23.72,26.71,14.00,45.27,1013.73,2047.01,3565.04,3118.00,3580.96,599.92,600.84,1.74,0000 0000 0000 0000 000000
2017-07-06 07:01:07,0.00,0.00,0.00,19.80,23.74,26.72,14.05,45.16,1013.78,2047.00,3565.01,3117.99,3580.88,600.19,600.97,1.79,0000 0000 0000 0000 000000
2017-07-06 07:06:08,0.01,0.00,0.00,19.84,23.75,26.74,14.00,45.28,1013.84,2047.01,3565.00,3117.99,3580.52,599.69,600.51,1.84,0000 0000 0000 0000 000000
2017-07-06 07:11:10,0.00,0.00,0.00,19.87,23.77,26.73,14.02,45.17,1013.86,2047.00,3564.98,3117.94,3580.03,599.97,600.68,1.89,0000 0000 0000 0000 000000
2017-07-06 07:16:11,0.01,0.00,0.00,19.90,23.78,26.75,14.04,45.28,1013.70,2047.00,3564.95,3117.73,3580.00,600.33,601.00,1.94,0000 0000 0000 0000 000000
2017-07-06 07:21:12,0.02,0.00,0.00,19.93,23.80,26.75,14.10,45.17,1013.71,2047.00,3564.72,3117.31,3579.99,600.26,600.76,1.99,0000 0000 0000 0000 000000
2017-07-06 07:26:14,0.00,0.01,0.00,19.97,23.82,26.76,13.97,45.22,1013.72,2047.00,3564.48,3117.06,3579.97,599.85,600.24,2.04,0000 0000 0000 0000 000000
2017-07-06 07:31:15,0.00,0.01,0.00,20.00,23.84,26.78,13.99,45.31,1013.69,2047.00,3564.62,3117.09,3579.93,599.91,600.36,2.09,0000 0000 0000 0000 000000
2017-07-06 07:36:17,0.02,0.01,0.00,20.04,23.86,26.78,14.00,45.11,1013.70,2047.00,3564.04,3117.00,3579.29,599.82,600.19,2.14,0000 0000 0000 0000 000000
2017-07-06 07:41:18,0.00,0.01,0.00,20.07,23.88,26.77,14.03,45.20,1013.72,2047.00,3564.00,3117.00,3579.02,600.15,600.50,2.19,0000 0000 0000 0000 000000
2017-07-06 07:46:20,0.00,0.01,0.00,20.09,23.90,26.81,14.09,45.23,1013.75,2046.99,3564.00,3116.99,3579.00,599.83,600.11,2.24,0000 0000 0000 0000 000000
2017-07-06 07:51:21,0.00,0.01,0.00,20.11,23.92,26.82,14.01,45.23,1013.74,2046.97,3563.98,3116.94,3578.97,600.02,600.23,2.29,0000 0000 0000 0000 000000
2017-07-06 07:56:23,0.00,0.01,0.00,20.14,23.94,26.79,14.05,45.03,1013.81,2046.95,3563.89,3116.79,3578.90,599.93,600.13,2.34,0000 0000 0000 0000 000000
2017-07-06 08:01:24,0.02,0.01,0.00,20.16,23.96,26.85,13.98,45.09,1013.81,2046.89,3563.33,3116.26,3578.44,599.72,599.87,2.39,0000 0000 0000 0000 000000
2017-07-06 08:06:25,-0.03,0.01,0.00,20.18,23.98,26.85,14.01,45.09,1013.88,2046.63,3563.05,3116.04,3578.03,600.02,600.10,2.44,0000 0000 0000 0000 000000
2017-07-06 08:11:26,-0.02,0.01,0.00,20.18,24.00,26.87,14.04,45.17,1013.80,2046.23,3563.00,3116.00,3578.00,600.04,600.13,2.49,0000 0000 0000 0000 000000
2017-07-06 08:16:28,-0.02,0.01,0.00,20.20,24.02,26.88,14.02,45.23,1013.77,2046.08,3562.99,3116.00,3577.99,600.04,600.18,2.54,0000 0000 0000 0000 000000
2017-07-06 08:21:29,0.00,0.01,0.00,20.22,24.05,26.95,13.99,45.11,1014.08,2046.04,3562.98,3116.00,3577.97,599.91,600.18,2.59,0000 0000 0000 0000 000000
2017-07-06 08:26:30,0.01,0.01,0.00,20.22,24.06,26.96,14.01,45.09,1014.17,2046.01,3562.63,3115.97,3577.61,599.85,600.13,2.64,0000 0000 0000 0000 000000
2017-07-06 08:31:31,0.01,0.01,0.00,20.23,24.08,26.99,14.02,45.11,1014.17,2046.00,3562.09,3115.76,3577.09,599.88,600.14,2.69,0000 0000 0000 0000 000000
2017-07-06 08:36:32,0.01,0.01,0.00,20.22,24.10,27.02,14.02,45.08,1014.17,2046.00,3562.01,3115.23,3577.01,599.99,600.23,2.74,0000 0000 0000 0000 000000
2017-07-06 08:41:33,0.00,0.01,0.00,20.23,24.12,27.04,14.03,45.13,1014.23,2046.00,3562.00,3115.05,3576.99,599.48,599.61,2.79,0000 0000 0000 0000 000000
2017-07-06 08:46:35,0.00,0.01,0.00,20.24,24.14,27.08,14.00,45.08,1014.37,2045.99,3561.96,3115.00,3576.96,599.95,600.34,2.84,0000 0000 0000 0000 000000
2017-07-06 08:51:36,0.01,0.01,0.00,20.26,24.15,27.10,14.05,45.06,1014.33,2045.98,3561.65,3115.00,3576.59,599.91,600.30,2.89,0000 0000 0000 0000 000000
2017-07-06 08:56:37,0.01,0.01,0.00,20.29,24.17,27.11,14.08,44.92,1014.36,2045.96,3561.17,3114.99,3576.08,600.18,600.36,2.94,0000 0000 0000 0000 000000
2017-07-06 09:01:39,0.01,0.01,0.00,20.32,24.19,27.12,14.07,45.08,1014.34,2045.94,3561.01,3114.62,3576.00,600.26,600.31,2.99,0000 0000 0000 0000 000000
2017-07-06 09:06:40,0.01,0.01,0.00,20.35,24.21,27.12,14.07,44.97,1014.59,2045.91,3561.00,3114.17,3575.99,600.13,600.17,3.04,0000 0000 0000 0000 000000
2017-07-06 09:11:41,-0.00,0.01,0.00,20.39,24.22,27.13,13.99,44.86,1014.59,2045.89,3560.97,3114.04,3575.98,599.79,599.87,3.09,0000 0000 0000 0000 000000
2017-07-06 09:16:43,0.01,0.01,0.00,20.41,24.25,27.16,13.99,44.95,1014.48,2045.68,3560.33,3114.00,3575.68,599.65,599.68,3.14,0000 0000 0000 0000 000000
2017-07-06 09:21:44,-0.04,0.01,0.00,20.44,24.27,27.15,14.03,45.01,1014.50,2045.32,3560.16,3114.00,3575.13,599.98,600.03,3.19,0000 0000 0000 0000 000000
2017-07-06 09:26:46,-0.00,0.01,0.00,20.48,24.29,27.16,14.03,44.89,1014.60,2045.08,3560.02,3113.99,3575.00,600.42,600.41,3.24,0000 0000 0000 0000 000000
2017-07-06 09:31:47,-0.00,0.01,0.00,20.51,24.31,27.17,14.03,44.80,1014.64,2045.03,3560.00,3113.96,3575.00,600.36,600.34,3.29,0000 0000 0000 0000 000000
2017-07-06 09:36:48,0.01,0.01,0.00,20.53,24.32,27.17,14.03,44.75,1014.66,2045.01,3559.99,3113.65,3574.97,599.87,599.72,3.34,0000 0000 0000 0000 000000
2017-07-06 09:41:50,0.00,0.01,0.00,20.56,24.35,27.20,14.03,44.80,1014.66,2045.00,3559.97,3113.18,3574.78,600.11,599.97,3.39,0000 0000 0000 0000 000000
2017-07-06 09:46:51,0.01,0.01,0.00,20.58,24.37,27.20,13.98,44.83,1014.66,2045.00,3559.89,3113.06,3574.28,599.80,599.59,3.44,0000 0000 0000 0000 000000
2017-07-06 09:51:52,0.01,0.01,0.00,20.61,24.39,27.21,14.05,44.76,1014.66,2045.00,3559.33,3113.00,3574.04,600.21,599.95,3.49,0000 0000 0000 0000 000000
2017-07-06 09:56:53,0.00,0.01,0.00,20.63,24.41,27.20,14.01,44.83,1014.68,2045.00,3559.06,3113.00,3574.00,599.92,599.60,3.54,0000 0000 0000 0000 000000
2017-07-06 10:01:55,0.00,0.01,0.00,20.67,24.43,27.20,13.99,44.77,1014.67,2044.98,3559.00,3112.99,3573.98,600.02,599.69,3.59,0000 0000 0000 0000 000000
2017-07-06 10:06:56,0.00,0.01,0.00,20.70,24.46,27.23,14.02,44.68,1014.68,2044.96,3559.00,3112.95,3573.87,600.14,599.73,3.64,0000 0000 0000 0000 000000
2017-07-06 10:11:57,0.01,0.01,0.00,20.74,24.48,27.23,13.94,44.73,1014.68,2044.82,3558.93,3112.39,3573.22,599.72,599.23,3.69,0000 0000 0000 0000 000000
2017-07-06 10:16:59,-0.03,0.01,0.00,20.78,24.50,27.24,13.98,44.75,1014.67,2044.47,3558.60,3112.08,3573.01,599.93,599.32,3.74,0000 0000 0000 0000 000000
2017-07-06 10:22:00,-0.02,0.01,0.00,20.82,24.53,27.21,13.93,44.73,1014.68,2044.07,3558.07,3112.02,3573.00,600.07,599.33,3.79,0000 0000 0000 0000 000000
2017-07-06 10:27:01,-0.00,0.01,0.00,20.85,24.56,27.24,13.98,44.77,1014.68,2044.01,3558.00,3112.00,3572.94,600.07,599.26,3.84,0000 0000 0000 0000 000000
2017-07-06 10:32:02,0.00,0.01,0.00,20.90,24.58,27.23,14.01,44.72,1014.70,2044.01,3557.99,3111.98,3572.62,600.20,599.33,3.90,0000 0000 0000 0000 000000
2017-07-06 10:37:03,0.02,0.01,0.00,20.95,24.61,27.24,13.92,44.70,1014.69,2044.00,3557.88,3111.73,3572.09,599.59,598.65,3.95,0000 0000 0000 0000 000000
2017-07-06 10:42:05,0.01,0.01,0.00,21.00,24.64,27.27,13.98,44.64,1014.74,2044.00,3557.35,3111.09,3572.00,600.12,599.10,4.00,0000 0000 0000 0000 000000
2017-07-06 10:47:07,0.00,0.01,0.00,21.02,24.67,27.31,13.86,44.58,1014.82,2043.98,3557.08,3111.01,3571.92,599.77,598.82,4.05,0000 0000 0000 0000 000000
2017-07-06 10:52:08,0.00,0.01,0.00,21.03,24.70,27.36,13.96,44.66,1014.80,2043.93,3557.00,3111.00,3571.40,599.88,598.87,4.10,0000 0000 0000 0000 000000
2017-07-06 10:57:09,-0.03,0.01,0.00,21.06,24.73,27.37,14.04,44.70,1014.71,2043.62,3557.00,3110.98,3571.02,600.18,599.01,4.15,0000 0000 0000 0000 000000
2017-07-06 11:02:10,-0.02,0.01,0.00,21.07,24.76,27.43,13.93,44.63,1014.72,2043.16,3556.88,3110.75,3571.00,599.88,598.71,4.20,0000 0000 0000 0000 000000
2017-07-06 11:07:11,0.01,0.01,0.00,21.08,24.79,27.48,13.94,44.55,1014.78,2043.03,3556.39,3110.14,3570.97,600.24,599.10,4.25,0000 0000 0000 0000 000000
2017-07-06 11:12:12,0.01,0.01,0.00,21.13,24.82,27.49,13.96,44.73,1014.98,2043.02,3556.13,3110.04,3570.72,599.93,598.75,4.30,0000 0000 0000 0000 000000
2017-07-06 11:17:14,0.00,0.01,0.00,21.20,24.85,27.51,13.98,44.58,1015.03,2043.00,3556.02,3110.01,3570.39,600.01,598.81,4.35,0000 0000 0000 0000 000000
2017-07-06 11:22:15,0.00,0.01,0.00,21.31,24.88,27.50,13.94,44.67,1015.12,2043.00,3555.98,3109.98,3570.02,599.86,598.45,4.40,0000 0000 0000 0000 000000
2017-07-06 11:27:17,0.00,0.01,0.00,21.43,24.91,27.52,13.94,44.67,1015.14,2042.98,3555.97,3109.93,3569.99,599.91,598.25,4.45,0000 0000 0000 0000 000000
2017-07-06 11:32:18,0.01,0.01,0.00,21.51,24.94,27.56,13.92,44.52,1015.15,2042.96,3555.81,3109.59,3569.89,600.04,598.16,4.50,0000 0000 0000 0000 000000
2017-07-06 11:37:19,-0.02,0.01,0.00,21.52,24.97,27.63,13.92,44.62,1015.15,2042.62,3555.13,3109.07,3569.19,599.84,598.13,4.55,0000 0000 0000 0000 000000
2017-07-06 11:42:20,-0.02,0.01,0.00,21.48,25.00,27.69,14.03,44.65,1015.15,2042.05,3555.00,3109.00,3569.00,600.15,598.28,4.60,0000 0000 0000 0000 000000
2017-07-06 11:47:21,0.00,0.01,0.00,21.44,25.03,27.74,14.03,44.62,1015.15,2042.02,3554.97,3108.99,3568.96,600.27,598.62,4.65,0000 0000 0000 0000 000000
2017-07-06 11:52:22,0.01,0.01,0.00,21.39,25.06,27.80,13.95,44.59,1015.16,2042.00,3554.63,3108.90,3568.67,600.03,598.36,4.70,0000 0000 0000 0000 000000
2017-07-06 11:57:24,0.02,0.01,0.00,21.35,25.08,27.90,13.97,44.60,1015.15,2042.00,3554.14,3108.42,3568.17,600.09,598.59,4.75,0000 0000 0000 0000 000000
2017-07-06 12:02:25,0.00,0.01,0.00,21.30,25.10,27.98,13.98,44.69,1015.16,2041.98,3554.02,3108.06,3568.01,600.03,598.73,4.80,0000 0000 0000 0000 000000
2017-07-06 12:07:26,-0.00,0.01,0.00,21.27,25.12,28.09,13.92,44.62,1015.15,2041.97,3554.00,3108.00,3568.00,599.84,598.49,4.85,0000 0000 0000 0000 000000
2017-07-06 12:12:27,-0.00,0.01,0.00,21.24,25.14,28.17,13.99,44.52,1015.15,2041.89,3553.99,3108.00,3567.99,600.16,598.94,4.90,0000 0000 0000 0000 000000
2017-07-06 12:17:29,-0.02,0.01,0.00,21.22,25.16,28.20,13.96,44.55,1015.15,2041.56,3553.74,3108.00,3567.76,600.31,599.04,4.95,0000 0000 0000 0000 000000
2017-07-06 12:22:30,-0.01,0.01,0.00,21.19,25.17,28.25,13.98,44.60,1015.16,2041.51,3553.71,3107.98,3567.64,599.97,598.90,5.00,0000 0000 0000 0000 000000
2017-07-06 12:27:31,-0.01,0.01,0.00,21.18,25.19,28.25,13.98,44.71,1015.16,2041.11,3553.19,3107.86,3567.09,600.05,598.87,5.05,0000 0000 0000 0000 000000
2017-07-06 12:32:32,0.01,0.01,0.00,21.17,25.20,28.26,14.05,44.70,1015.15,2041.02,3553.02,3107.52,3567.01,600.65,599.63,5.10,0000 0000 0000 0000 000000
2017-07-06 12:37:34,0.00,0.01,0.00,21.14,25.20,28.30,14.02,44.71,1015.15,2041.03,3553.03,3107.51,3567.00,599.65,598.69,5.15,0000 0000 0000 0000 000000
2017-07-06 12:42:35,0.01,0.01,0.00,21.14,25.22,28.28,13.96,44.59,1015.15,2041.00,3553.00,3107.24,3567.00,599.54,598.57,5.20,0000 0000 0000 0000 000000
2017-07-06 12:47:36,0.00,0.01,0.00,21.13,25.22,28.31,13.95,44.69,1015.16,2041.00,3553.00,3107.08,3566.99,599.90,598.74,5.25,0000 0000 0000 0000 000000
2017-07-06 12:52:37,0.00,0.01,0.00,21.12,25.22,28.28,14.01,44.61,1015.18,2041.00,3553.00,3107.03,3566.95,599.97,598.96,5.30,0000 0000 0000 0000 000000
2017-07-06 12:57:38,0.00,0.01,0.00,21.12,25.23,28.30,14.05,44.64,1015.18,2041.00,3552.91,3107.00,3566.76,600.15,599.15,5.35,0000 0000 0000 0000 000000